This is the latest recevied weather packets stored in our database for station/object KA3WVU. If no packets are shown the sender has not sent any weather packets the latest 10 day(s).
| Time | Temp. | Humidity | Pressure | Rain* | Wind** | Luminosity | Snow |
|---|---|---|---|---|---|---|---|
| 1777763717 | 3.33° C | 74% | 1013 hPa | 0 mm | - | 15 W/m² | - |
| 1777763415 | 3.33° C | 72% | 1013.1 hPa | 0 mm | - | 18 W/m² | - |
| 1777763113 | 3.33° C | 72% | 1012.9 hPa | 0 mm | - | 23 W/m² | - |
| 1777762811 | 3.33° C | 71% | 1013.1 hPa | 0 mm | - | 30 W/m² | - |
| 1777762506 | 3.33° C | 72% | 1012.9 hPa | 0 mm | - | 34 W/m² | - |
| 1777762204 | 3.33° C | 72% | 1013 hPa | 0 mm | - | 34 W/m² | - |
| 1777761900 | 3.33° C | 73% | 1013 hPa | 0 mm | - | 33 W/m² | - |
| 1777761596 | 3.33° C | 74% | 1013 hPa | 0 mm | - | 34 W/m² | - |
| 1777761294 | 3.33° C | 73% | 1012.9 hPa | 0 mm | - | 35 W/m² | - |
| 1777760992 | 3.33° C | 73% | 1013 hPa | 0 mm | - | 38 W/m² | - |
| 1777760690 | 3.33° C | 73% | 1012.7 hPa | 0 mm | - | 27 W/m² | - |
| 1777760385 | 3.89° C | 73% | 1012.7 hPa | 0 mm | - | 29 W/m² | - |
| 1777760081 | 3.89° C | 74% | 1012.8 hPa | 0 mm | - | 49 W/m² | - |
| 1777759779 | 3.89° C | 74% | 1012.8 hPa | 0 mm | - | 45 W/m² | - |
| 1777759474 | 3.89° C | 74% | 1012.8 hPa | 0 mm | - | 38 W/m² | - |
| 1777759171 | 3.89° C | 73% | 1012.9 hPa | 0 mm | - | 60 W/m² | - |
| 1777758868 | 3.89° C | 72% | 1012.7 hPa | 0 mm | - | 106 W/m² | - |
| 1777758566 | 3.89° C | 73% | 1012.9 hPa | 0 mm | - | 88 W/m² | - |
| 1777758262 | 3.89° C | 76% | 1012.8 hPa | 0 mm | - | 30 W/m² | - |
| 1777757959 | 3.89° C | 75% | 1012.7 hPa | 0 mm | - | 32 W/m² | - |
| 1777757656 | 3.89° C | 74% | 1012.6 hPa | 0 mm | - | 73 W/m² | - |
| 1777757355 | 3.89° C | 76% | 1012.7 hPa | 0 mm | - | 80 W/m² | - |
| 1777757053 | 3.89° C | 76% | 1012.7 hPa | 0 mm | - | 42 W/m² | - |
| 1777756750 | 3.89° C | 74% | 1012.7 hPa | 0 mm | - | 28 W/m² | - |
| 1777756445 | 3.89° C | 73% | 1012.4 hPa | 0 mm | - | 72 W/m² | - |
* Rain latest hour (hover to see other rain measurements)
** Current wind speed in m/s (hover to see current wind gust speed)